Weather History for Astoria, OR

Change the Weather History Date:

Saturday, January 19, 2013

  Actual Average Record
Temperature  
Mean Temperature 41 °F 44 °F  
Max Temperature 50 °F 50 °F 66 °F (2005)
Min Temperature 31 °F 38 °F 16 °F (1935)
Degree Days  
Heating Degree Days 24 21  
Month to date heating degree days 475 408  
Since 1 July heating degree days 2541 2514  
Cooling Degree Days 0 0  
Month to date cooling degree days 0 0  
Year to date cooling degree days 0 0  
Moisture  
Dew Point 35 °F    
Average Humidity 80    
Maximum Humidity 100    
Minimum Humidity 60    
Precipitation  
Precipitation 0.00 in 0.34 in 3.25 in (1950)
Month to date precipitation 4.23 6.56  
Year to date precipitation 4.23 6.56  
Snow  
Snow 0.00 in - - ()
Month to date snowfall 0.0  
Snow Depth 0.00 in    
Sea Level Pressure  
Sea Level Pressure 30.28 in    
Wind  
Wind Speed 4 mph (NE)    
Max Wind Speed 9 mph    
Max Gust Speed 12 mph    
Visibility 6 miles    
Events Fog    
T = Trace of Precipitation, MM = Missing Value Source: NWS Daily Summary

Daily Weather History Graph

Daily Weather History Graph

Search for Another Location

Airport:

Trip Planner

Search our weather history database for the weather conditions in past years. The results will help you decide how hot, cold, wet, or windy it might be!

Date:

Astronomy

Jan. 19, 2013 Rise Set
Actual Time 7:50 AM PST 5:02 PM PST
Civil Twilight 7:17 AM PST 5:35 PM PST
Nautical Twilight 6:40 AM PST 6:12 PM PST
Astronomical Twilight 6:05 AM PST 6:48 PM PST
Moon 11:35 AM PST (1/19) 1:26 AM PST (1/19)
Length of Visible Light 10h 17m
Length of Day
9h 11m
First Quarter, 58% of the Moon is Illuminated
Jan 19
First Quarter
Jan 26
Full
Feb 3
Last Quarter
Feb 9
New
Feb 17
First Quarter

Hourly Weather History & Observations

Time (PST) Temp. Windchill Dew Point Humidity Pressure Visibility Wind Dir Wind Speed Gust Speed Precip Events Conditions
12:55 AM 35.1 °F 29.3 °F 32.0 °F 89% 30.23 in 10.0 mi East 6.9 mph - N/A   Clear
1:55 AM 35.1 °F 31.0 °F 32.0 °F 89% 30.24 in 10.0 mi East 4.6 mph - N/A   Clear
2:55 AM 36.0 °F 29.6 °F 33.1 °F 89% 30.24 in 10.0 mi East 8.1 mph - N/A   Clear
3:55 AM 35.1 °F 32.2 °F 32.0 °F 89% 30.24 in 10.0 mi East 3.5 mph - N/A   Clear
4:55 AM 34.0 °F 29.8 °F 30.9 °F 89% 30.24 in 10.0 mi East 4.6 mph - N/A   Clear
5:55 AM 33.1 °F 26.9 °F 30.0 °F 89% 30.24 in 10.0 mi East 6.9 mph - N/A   Clear
6:55 AM 32.0 °F 27.5 °F 30.0 °F 92% 30.24 in 10.0 mi East 4.6 mph - N/A   Clear
7:55 AM 34.0 °F 28.8 °F 30.0 °F 85% 30.24 in 10.0 mi East 5.8 mph - N/A   Clear
8:55 AM 35.1 °F 31.0 °F 30.9 °F 85% 30.25 in 10.0 mi East 4.6 mph - N/A   Clear
9:55 AM 39.9 °F - 32.0 °F 73% 30.27 in 10.0 mi Calm Calm - N/A   Clear
10:55 AM 43.0 °F - 33.1 °F 68% 30.29 in 10.0 mi Calm Calm - N/A   Clear
11:55 AM 44.1 °F 42.5 °F 34.0 °F 68% 30.27 in 10.0 mi North 3.5 mph - N/A   Clear
12:55 PM 46.0 °F 43.9 °F 35.1 °F 66% 30.26 in 10.0 mi North 4.6 mph - N/A   Clear
1:55 PM 46.9 °F - 34.0 °F 61% 30.26 in 10.0 mi North 5.8 mph - N/A   Clear
2:55 PM 48.9 °F - 35.1 °F 59% 30.26 in 10.0 mi NW 3.5 mph - N/A   Clear
3:55 PM 48.0 °F - 36.0 °F 63% 30.26 in 10.0 mi Calm Calm - N/A   Clear
4:55 PM 41.0 °F 39.0 °F 36.0 °F 82% 30.27 in 10.0 mi West 3.5 mph - N/A   Clear
5:48 PM 37.4 °F 32.1 °F 35.6 °F 93% 30.28 in 1.5 mi WSW 6.9 mph - N/A   Partly Cloudy
5:50 PM 37.4 °F 32.1 °F 35.6 °F 93% 30.28 in 0.8 mi WSW 6.9 mph - N/A   Mist
5:55 PM 37.9 °F 32.7 °F 37.0 °F 97% 30.28 in 0.2 mi WSW 6.9 mph - N/A Fog Fog
6:55 PM 41.0 °F - 39.9 °F 96% 30.29 in 0.2 mi Calm Calm - N/A Fog Fog
7:42 PM 41.0 °F - 39.2 °F 93% 30.30 in 0.5 mi Calm Calm - N/A Fog Fog
7:55 PM 39.9 °F - 39.9 °F 100% 30.30 in 0.5 mi Calm Calm - N/A Fog Fog
8:07 PM 39.2 °F - 39.2 °F 100% 30.30 in 1.2 mi Calm Calm - N/A   Overcast
8:12 PM 39.2 °F - 39.2 °F 100% 30.30 in 2.0 mi Calm Calm - N/A   Overcast
8:20 PM 41.0 °F - 39.2 °F 93% 30.31 in 5.0 mi Calm Calm - N/A   Overcast
8:55 PM 39.9 °F 37.8 °F 39.0 °F 97% 30.31 in 8.0 mi NNW 3.5 mph - N/A   Overcast
9:55 PM 37.0 °F 34.5 °F 36.0 °F 96% 30.31 in 8.0 mi North 3.5 mph - N/A   Overcast
9:59 PM 37.4 °F 33.8 °F 35.6 °F 93% 30.31 in 1.2 mi NNE 4.6 mph - N/A   Overcast
10:04 PM 37.4 °F 33.8 °F 35.6 °F 93% 30.31 in 0.2 mi NNE 4.6 mph - N/A Fog Fog
10:11 PM 37.4 °F 34.9 °F 35.6 °F 93% 30.31 in 0.2 mi NNE 3.5 mph - N/A Fog Fog
10:29 PM 37.4 °F 34.9 °F 37.4 °F 100% 30.31 in 1.2 mi East 3.5 mph - N/A   Overcast
10:31 PM 37.4 °F 33.8 °F 37.4 °F 100% 30.31 in 2.0 mi East 4.6 mph - N/A   Overcast
10:35 PM 37.4 °F 32.8 °F 37.4 °F 100% 30.31 in 1.2 mi East 5.8 mph - N/A   Overcast
10:43 PM 37.4 °F 34.9 °F 35.6 °F 93% 30.31 in 0.5 mi East 3.5 mph - N/A Fog Fog
10:55 PM 37.0 °F 33.3 °F 37.0 °F 100% 30.31 in 0.5 mi ENE 4.6 mph - N/A Fog Fog
11:08 PM 37.4 °F 34.9 °F 35.6 °F 93% 30.31 in 0.2 mi NE 3.5 mph - N/A Fog Fog
11:55 PM 35.6 °F - 35.6 °F 100% 30.31 in 0.2 mi Calm Calm - N/A Fog Fog